Wind_Speed
13 12 12 12 12 12 11 10 9 9 9 8 7 7 7 8 8 7 7 7 8 8 8 7 7 7 7 7 8 9 9 10 10 11 12 12 13 13 14 14 14 14 14
13 13 13 12 12 12 12 11 11 10 9 9 8 8 8 8 8 8 8 9 9 9 8 8 8 8 9 9 9 10 11 11 12 12 13 14 14 15 15 15 15 16 16
14 13 13 13 12 13 13 12 12 11 11 11 10 10 10 9 8 9 9 10 10 9 9 9 10 10 10 11 11 11 12 12 13 14 15 15 16 17 17 17 16 17 18
14 14 14 13 13 13 14 13 12 12 12 12 11 11 11 10 10 10 10 11 11 10 11 11 11 11 11 12 13 13 13 14 15 16 16 17 17 18 18 18 18 18 19
15 14 14 14 14 14 14 13 13 13 13 13 12 12 12 11 12 12 12 12 12 12 12 12 12 13 13 14 14 14 15 16 17 17 17 18 18 18 18 19 19 19 20
15 15 15 14 14 14 14 13 14 14 14 15 13 13 13 13 13 13 14 13 13 13 13 14 14 14 15 15 16 16 17 17 18 18 19 19 19 19 19 20 21 21 21
16 15 16 15 14 14 14 15 15 15 14 14 14 14 14 14 14 15 15 15 16 16 16 16 16 16 17 17 17 18 19 19 20 20 20 20 21 21 21 22 23 24 25
16 15 15 15 15 15 15 16 16 15 15 15 15 15 16 16 16 16 17 17 17 18 18 18 18 18 19 19 20 20 20 21 21 22 22 22 23 24 24 26 27 27 28
16 16 16 15 15 15 15 16 16 16 16 16 17 17 18 18 19 19 19 19 19 19 20 20 20 20 20 21 22 22 22 23 23 24 24 24 26 27 28 29 29 29 29
16 16 16 16 16 15 15 15 15 15 16 17 18 19 19 19 20 20 20 20 20 21 21 21 22 22 22 23 24 24 24 25 25 26 27 28 29 30 31 31 31 31 31
17 16 16 16 16 16 16 15 16 16 17 17 19 19 19 20 20 20 21 21 22 22 22 22 23 24 24 25 25 25 26 27 27 28 29 30 32 32 33 33 33 34 33
17 17 17 17 16 16 16 17 17 18 19 19 19 20 20 21 21 22 22 23 23 23 23 23 24 24 25 26 27 27 28 29 30 30 31 32 33 34 34 34 34 34 35
17 18 18 17 17 17 18 19 19 19 20 20 20 20 21 22 22 23 24 24 24 24 24 24 25 26 26 27 28 29 30 31 32 32 33 34 34 34 34 34 35 35 36
18 19 19 19 19 18 19 19 20 20 20 21 21 21 22 23 23 24 24 25 25 25 26 27 28 28 28 29 30 31 32 32 33 33 34 34 34 34 35 35 36 36 37
19 20 20 20 20 20 20 21 21 22 22 22 22 22 23 23 24 24 24 25 26 27 27 28 29 30 31 31 32 32 32 32 33 34 34 35 35 35 36 37 38 38 39
19 19 20 20 21 21 21 22 22 23 24 24 23 23 23 24 25 26 26 27 28 28 29 30 31 31 32 33 33 33 34 35 35 36 37 37 38 39 39 40 40 41 41
19 19 20 21 22 22 22 22 23 24 25 25 25 26 26 27 27 28 28 29 30 30 30 31 32 32 33 33 33 34 35 36 36 37 38 39 40 40 41 42 42 42 43
21 22 22 22 23 23 23 23 24 24 25 26 26 27 27 27 27 28 29 30 31 31 31 32 32 33 33 34 35 35 36 36 37 39 40 41 41 41 42 43 44 44 45
22 23 23 23 24 24 24 25 25 25 26 26 27 27 28 28 28 29 30 31 32 32 32 33 33 34 35 35 36 36 37 38 39 40 41 42 42 43 43 45 46 46 46
23 24 25 25 25 25 26 26 26 26 27 28 28 28 29 29 29 30 31 32 33 34 34 35 35 36 36 37 37 38 39 40 41 42 42 43 44 44 45 46 47 47 47
24 24 25 25 25 26 26 26 27 27 28 28 28 29 30 31 31 32 32 33 34 35 36 36 37 38 38 39 39 40 41 42 43 43 43 44 45 46 47 47 48 48 47
24 25 26 26 27 27 27 27 28 28 28 29 29 30 30 32 33 34 34 35 36 37 38 38 39 39 40 41 41 42 43 43 44 44 44 45 45 46 47 47 47 47 47
24 25 27 27 27 27 28 28 28 29 29 29 30 30 32 33 34 35 36 36 37 38 39 39 40 41 42 42 42 42 43 43 43 44 44 44 45 46 46 47 46 46 46
25 26 27 27 28 29 29 30 30 30 30 31 32 33 33 34 35 35 36 37 38 39 39 40 41 42 41 42 42 42 43 43 43 44 44 45 45 46 46 46 46 46 45
27 27 27 27 28 28 29 30 31 32 32 33 33 34 35 35 36 36 37 38 39 39 40 40 40 40 40 41 42 42 43 43 43 44 44 45 46 46 46 46 45 45 45
28 28 28 29 29 30 31 31 32 33 33 34 35 35 36 36 37 38 39 39 39 39 39 39 39 40 40 41 41 42 42 43 43 43 44 45 45 46 45 45 45 45 45
Wind_Direction
238 243 248 251 253 256 259 261 261 264 267 274 277 284 285 283 283 289 299 307 308 305 302 303 301 296 295 295 295 297 299 301 302 303 304 305 305 303 301 300 298 297 299
239 245 247 249 252 255 259 261 261 260 264 269 272 278 284 284 284 290 296 301 303 303 302 298 297 297 294 292 292 294 297 299 300 301 303 304 305 305 304 300 298 297 295
241 246 247 250 253 254 258 262 261 260 262 267 269 272 278 279 281 288 292 297 298 297 297 299 301 298 296 295 294 295 298 299 301 301 301 301 301 302 301 300 299 297 295
240 244 244 247 253 257 257 258 260 259 263 269 268 271 274 275 281 286 289 292 294 295 294 295 299 301 300 297 295 295 296 297 299 299 299 298 299 299 299 298 298 299 297
239 241 245 249 254 257 257 258 261 261 265 267 268 269 271 277 280 284 285 287 290 290 292 294 296 298 298 298 297 298 297 297 297 298 299 298 299 299 300 300 299 298 299
239 241 244 247 251 254 256 260 263 263 266 265 264 268 272 275 278 281 282 282 285 288 289 289 291 294 295 296 297 296 296 298 299 298 297 297 298 299 299 301 300 298 297
239 242 243 246 251 253 256 262 263 263 264 259 262 268 273 275 277 280 280 281 282 285 287 288 288 289 289 292 294 296 297 297 297 299 300 299 297 297 298 299 299 298 296
240 241 243 245 249 253 257 261 263 264 263 263 265 268 272 274 276 279 281 281 283 286 286 287 287 287 288 289 291 293 295 296 297 298 298 297 297 297 297 297 297 296 296
244 244 244 246 249 253 257 261 262 264 265 265 266 268 271 273 276 279 280 281 283 285 286 286 285 285 286 286 288 290 292 294 295 296 296 296 296 296 295 296 296 295 294
245 245 245 247 249 252 256 262 265 267 270 269 267 269 271 274 277 280 279 279 281 282 284 285 287 287 286 286 288 289 291 293 295 296 295 295 295 295 295 295 295 294 293
243 244 245 246 249 253 256 261 267 270 272 274 272 270 272 277 280 280 280 281 281 283 284 285 286 287 287 287 288 290 292 293 295 296 296 295 295 295 295 294 294 294 294
243 243 245 247 251 255 258 264 270 273 274 275 277 273 272 276 278 280 281 282 283 285 286 286 286 288 289 288 289 290 292 293 294 295 296 296 296 296 295 295 295 294 294
245 244 244 248 252 258 262 267 270 274 275 276 278 278 275 274 277 279 280 281 283 284 286 286 287 288 289 289 289 290 291 292 293 294 296 297 297 297 297 296 295 294 294
247 248 248 252 257 261 266 270 273 274 276 279 280 280 278 277 278 280 280 282 283 284 286 287 288 288 289 289 289 290 291 292 293 294 296 297 297 296 296 295 295 294 295
254 252 252 254 259 263 268 270 273 275 277 279 281 283 282 281 282 285 286 285 286 287 288 289 290 290 289 289 289 290 291 292 293 294 296 297 297 296 296 296 295 295 296
255 256 256 258 263 267 270 273 274 277 277 277 280 283 283 282 284 286 287 287 287 287 288 289 291 291 290 290 289 290 291 292 293 294 296 297 297 297 297 296 296 296 297
255 258 259 261 265 269 272 274 277 279 278 278 279 281 282 282 283 284 286 288 288 289 289 291 292 292 291 291 290 291 292 292 293 294 295 297 297 298 297 297 297 297 297
257 259 261 265 267 271 273 275 277 279 280 280 280 280 282 283 284 285 287 289 290 290 290 291 292 292 292 292 292 292 293 293 294 295 296 298 298 298 298 298 297 297 297
261 263 264 266 269 272 275 277 278 280 280 281 281 281 281 284 285 287 288 290 291 291 291 291 291 292 292 292 293 293 293 294 295 296 297 297 298 298 298 298 298 297 297
264 265 266 267 270 273 276 277 278 280 281 282 282 283 284 285 287 288 289 290 291 291 291 291 291 291 292 292 293 293 293 294 296 296 297 297 298 299 299 298 298 298 297
266 268 269 269 271 273 275 277 278 280 282 283 284 285 287 287 288 288 289 291 292 292 292 292 292 293 293 294 293 294 295 296 296 296 297 298 299 299 299 299 298 298 297
267 268 270 271 273 275 276 278 280 282 284 285 286 286 287 287 289 290 290 291 292 293 293 293 294 294 294 294 294 294 295 296 296 297 298 298 299 300 300 300 299 298 298
269 270 270 272 273 275 277 279 281 283 285 286 287 288 288 288 289 290 291 291 292 293 293 293 293 294 294 295 295 295 296 297 297 297 298 299 300 300 301 301 300 299 298
271 272 272 273 274 275 277 279 281 282 284 286 287 288 289 290 290 291 292 293 294 294 294 293 293 294 295 296 296 296 296 296 297 298 299 299 300 301 302 302 301 299 299
274 274 275 276 276 277 278 280 280 282 284 285 287 289 289 290 291 292 293 294 296 296 296 295 295 295 296 297 298 298 298 297 298 299 299 299 300 301 302 301 301 300 299
275 276 277 278 278 279 279 280 282 284 285 286 288 289 290 290 292 293 293 294 295 296 296 297 297 297 297 298 298 299 298 298 298 298 299 300 300 301 301 301 301 301 300
Height
5860 5861 5863 5864 5865 5866 5867 5868 5869 5869 5869 5869 5870 5869 5869 5869 5869 5869 5869 5868 5867 5867 5866 5865 5865 5864 5864 5864 5864 5863 5863 5862 5862 5861 5860 5859 5859 5857 5856 5855 5854 5853 5851
5857 5859 5860 5861 5863 5864 5864 5865 5866 5866 5867 5867 5868 5868 5868 5867 5867 5867 5867 5866 5866 5865 5864 5864 5863 5863 5862 5862 5861 5861 5860 5860 5859 5858 5857 5856 5855 5854 5853 5852 5850 5849 5847
5854 5855 5857 5858 5860 5861 5862 5862 5863 5864 5864 5865 5865 5865 5865 5865 5865 5865 5864 5864 5863 5863 5862 5862 5861 5861 5860 5860 5859 5858 5858 5857 5856 5855 5854 5853 5852 5850 5849 5848 5846 5845 5843
5850 5852 5853 5855 5856 5857 5858 5859 5860 5861 5861 5862 5862 5863 5863 5863 5863 5863 5862 5862 5861 5860 5860 5860 5859 5858 5858 5857 5856 5855 5854 5854 5853 5851 5850 5849 5847 5846 5845 5843 5842 5840 5839
5847 5849 5850 5852 5853 5854 5855 5856 5857 5858 5858 5859 5859 5860 5860 5860 5860 5860 5859 5859 5858 5858 5857 5857 5856 5855 5854 5853 5853 5852 5851 5850 5849 5847 5846 5845 5843 5842 5840 5839 5837 5836 5834
5843 5845 5847 5848 5849 5850 5851 5853 5853 5854 5855 5855 5856 5856 5857 5857 5856 5856 5856 5855 5855 5855 5854 5854 5853 5852 5851 5850 5849 5848 5847 5846 5844 5843 5842 5840 5839 5837 5835 5834 5832 5830 5829
5839 5841 5843 5844 5846 5847 5848 5849 5850 5850 5851 5852 5852 5853 5853 5853 5853 5852 5852 5852 5851 5851 5850 5850 5849 5848 5847 5846 5844 5843 5842 5841 5840 5838 5837 5835 5833 5832 5830 5828 5826 5824 5822
5835 5837 5839 5841 5842 5843 5844 5845 5846 5847 5847 5848 5848 5849 5849 5849 5849 5848 5848 5847 5847 5846 5846 5845 5844 5843 5842 5841 5840 5839 5837 5836 5834 5833 5831 5829 5827 5825 5823 5821 5819 5817 5815
5832 5833 5835 5837 5838 5839 5841 5841 5842 5843 5843 5843 5844 5844 5845 5844 5844 5844 5843 5843 5842 5841 5840 5840 5839 5838 5837 5836 5835 5833 5832 5830 5829 5827 5825 5822 5820 5818 5816 5813 5811 5809 5807
5827 5829 5831 5832 5834 5835 5836 5837 5838 5839 5839 5839 5839 5839 5839 5839 5839 5838 5838 5837 5837 5836 5835 5834 5833 5832 5831 5829 5828 5827 5826 5824 5822 5820 5818 5816 5813 5810 5807 5805 5802 5800 5797
5823 5825 5826 5828 5830 5831 5832 5833 5833 5834 5834 5834 5834 5834 5834 5834 5833 5833 5832 5831 5831 5830 5829 5828 5827 5825 5824 5822 5821 5820 5818 5817 5815 5813 5810 5808 5805 5802 5799 5795 5793 5790 5787
5819 5820 5822 5824 5825 5826 5827 5828 5829 5829 5829 5829 5829 5829 5828 5828 5827 5827 5826 5825 5825 5824 5823 5821 5820 5818 5817 5815 5814 5812 5810 5808 5806 5804 5802 5799 5796 5793 5789 5786 5783 5780 5777
5814 5816 5818 5819 5821 5822 5823 5823 5823 5824 5824 5824 5823 5823 5822 5822 5821 5820 5820 5819 5818 5817 5816 5814 5813 5811 5809 5808 5806 5804 5802 5800 5798 5795 5792 5790 5786 5783 5780 5776 5773 5770 5767
5809 5811 5813 5814 5816 5817 5817 5818 5818 5818 5818 5818 5817 5817 5816 5815 5815 5814 5813 5812 5811 5810 5808 5807 5805 5803 5801 5799 5798 5795 5793 5791 5788 5786 5783 5780 5776 5773 5770 5766 5763 5760 5757
5804 5806 5807 5809 5810 5811 5812 5812 5812 5812 5812 5811 5811 5810 5809 5809 5808 5807 5806 5805 5803 5802 5801 5799 5797 5795 5793 5791 5789 5786 5784 5781 5779 5776 5773 5770 5766 5763 5760 5756 5752 5749 5745
5798 5800 5801 5803 5804 5805 5805 5806 5805 5805 5805 5805 5804 5804 5803 5802 5800 5799 5798 5797 5795 5794 5792 5791 5789 5787 5785 5782 5780 5777 5775 5772 5769 5766 5763 5759 5756 5752 5749 5745 5741 5737 5733
5793 5794 5796 5797 5798 5799 5799 5799 5799 5799 5798 5797 5797 5796 5795 5794 5793 5791 5790 5788 5787 5785 5783 5782 5780 5777 5775 5772 5770 5767 5764 5761 5759 5755 5752 5749 5745 5741 5737 5733 5728 5724 5720
5787 5789 5790 5791 5791 5792 5792 5792 5792 5791 5791 5790 5789 5788 5787 5786 5784 5783 5782 5780 5778 5776 5774 5772 5770 5767 5765 5762 5760 5757 5754 5751 5748 5745 5741 5737 5733 5729 5725 5720 5716 5711 5707
5781 5782 5783 5784 5784 5785 5785 5785 5784 5784 5783 5782 5781 5780 5779 5778 5776 5775 5773 5771 5769 5767 5765 5763 5760 5758 5755 5752 5749 5746 5743 5740 5737 5733 5729 5725 5721 5716 5712 5707 5703 5698 5693
5775 5775 5776 5777 5777 5777 5777 5777 5777 5776 5775 5774 5773 5772 5770 5769 5768 5766 5764 5762 5760 5758 5755 5753 5750 5747 5744 5741 5738 5735 5732 5728 5725 5721 5717 5713 5708 5704 5699 5694 5689 5684 5679
5768 5768 5769 5769 5770 5770 5770 5769 5769 5768 5767 5766 5765 5763 5761 5760 5758 5757 5755 5752 5750 5748 5745 5742 5739 5736 5733 5730 5727 5723 5720 5716 5712 5708 5704 5700 5695 5690 5685 5680 5675 5669 5664
5761 5761 5761 5761 5762 5762 5761 5761 5760 5759 5758 5757 5756 5754 5752 5751 5749 5747 5745 5743 5740 5737 5734 5731 5728 5725 5721 5718 5715 5711 5707 5703 5699 5695 5691 5687 5682 5677 5672 5666 5661 5656 5651
5753 5753 5754 5754 5754 5753 5753 5753 5752 5751 5750 5748 5747 5745 5743 5741 5739 5737 5735 5732 5729 5726 5723 5719 5716 5713 5710 5706 5702 5698 5695 5691 5686 5682 5678 5674 5669 5664 5658 5653 5648 5642 5638
5746 5746 5746 5745 5745 5745 5744 5744 5743 5741 5740 5739 5737 5736 5734 5731 5729 5726 5724 5721 5718 5715 5711 5708 5704 5701 5697 5693 5689 5686 5682 5678 5673 5669 5665 5661 5656 5651 5646 5640 5635 5630 5625
5738 5737 5737 5737 5736 5736 5735 5734 5733 5732 5731 5729 5727 5725 5723 5721 5718 5715 5713 5710 5707 5703 5700 5696 5692 5688 5685 5681 5677 5673 5669 5665 5661 5657 5652 5648 5643 5638 5633 5628 5622 5617 5612
5729 5729 5728 5728 5727 5726 5726 5725 5723 5722 5720 5719 5717 5715 5712 5710 5707 5704 5701 5698 5695 5691 5688 5684 5680 5677 5673 5669 5665 5661 5657 5653 5648 5644 5639 5635 5630 5625 5620 5615 5610 5605 5600